Change the Weather History Date:

Wednesday, August 21, 2013

  Actual Average Record
Temperature  
Mean Temperature 84 °F -  
Max Temperature 96 °F 90 °F 102 °F (2007)
Min Temperature 72 °F 63 °F 64 °F (1998)
Cooling Degree Days 18    
Growing Degree Days 34 (Base 50)    
Moisture  
Dew Point 45 °F    
Average Humidity 26    
Maximum Humidity 46    
Minimum Humidity 15    
Precipitation  
Precipitation 0.00 in - - ()
Sea Level Pressure  
Sea Level Pressure 29.87 in    
Wind  
Wind Speed 6 mph (South)    
Max Wind Speed 15 mph    
Max Gust Speed 22 mph    
Visibility 10 miles    
Events      
Averages and records for this station are not official NWS values.
T = Trace of Precipitation, MM = Missing Value Source: NWS Daily Summary

Daily Weather History Graph

Daily Weather History Graph

Search for Another Location

Airport or City:

Trip Planner

Search our weather history database for the weather conditions in past years. The results will help you decide how hot, cold, wet, or windy it might be!

Date:

Astronomy

Aug. 21, 2013 Rise Set
Actual Time 6:32 AM MDT 7:42 PM MDT
Civil Twilight 6:06 AM MDT 8:08 PM MDT
Nautical Twilight 5:35 AM MDT 8:38 PM MDT
Astronomical Twilight 5:04 AM MDT 9:10 PM MDT
Moon 8:00 PM MDT (8/21) 7:09 AM MDT (8/21)
Length of Visible Light 14h 01m
Length of Day
13h 10m
Full, 99% of the Moon is Illuminated
Aug 21
Full
Aug 28
Last Quarter
Sep 5
New
Sep 12
First Quarter
Sep 19
Full

Hourly Weather History & Observations

Time (MDT) Temp. Dew Point Humidity Pressure Visibility Wind Dir Wind Speed Gust Speed Precip Events Conditions
12:56 AM 77.5 °F 53.1 °F 42% 29.84 in 10.0 mi East 2.3 mph - N/A   Mostly Cloudy
1:56 AM 74.8 °F 52.9 °F 46% 29.85 in 10.0 mi West 2.3 mph - N/A   Mostly Cloudy
2:56 AM 76.1 °F 49.3 °F 39% 29.84 in 10.0 mi South 4.6 mph - N/A   Mostly Cloudy
3:56 AM 76.5 °F 47.7 °F 36% 29.84 in 10.0 mi SSE 5.8 mph - N/A   Mostly Cloudy
4:56 AM 75.4 °F 47.1 °F 37% 29.86 in 10.0 mi SSW 4.6 mph - N/A   Mostly Cloudy
5:56 AM 75.0 °F 48.7 °F 39% 29.87 in 10.0 mi WNW 3.5 mph - N/A   Scattered Clouds
6:56 AM 72.1 °F 50.5 °F 46% 29.90 in 10.0 mi NW 3.5 mph - N/A   Mostly Cloudy
7:56 AM 73.4 °F 51.1 °F 45% 29.91 in 11.0 mi West 4.6 mph - N/A   Scattered Clouds
8:56 AM 80.6 °F 50.0 °F 34% 29.92 in 12.0 mi SSW 2.3 mph - N/A   Partly Cloudy
9:56 AM 85.5 °F 48.4 °F 28% 29.91 in 10.0 mi SSW 5.8 mph - N/A   Partly Cloudy
10:26 AM 87.8 °F 46.4 °F 24% 30.14 in 0.6 mi South 5.8 mph 13.8 mph N/A   Partly Cloudy
10:35 AM 87.8 °F 46.4 °F 24% 30.14 in 12.0 mi SW 6.9 mph 15.0 mph N/A   Partly Cloudy
10:56 AM 89.1 °F 47.7 °F 24% 29.91 in 10.0 mi SW 5.8 mph - N/A   Scattered Clouds
11:56 AM 91.4 °F 48.2 °F 23% 29.91 in 12.0 mi WSW 4.6 mph - N/A   Scattered Clouds
12:56 PM 91.0 °F 47.8 °F 23% 29.88 in 10.0 mi South 9.2 mph 15.0 mph N/A   Scattered Clouds
1:56 PM 94.1 °F 45.5 °F 19% 29.86 in 10.0 mi SSW 8.1 mph 16.1 mph N/A   Scattered Clouds
2:56 PM 95.2 °F 40.3 °F 15% 29.83 in 10.0 mi South 10.4 mph 15.0 mph N/A   Scattered Clouds
3:56 PM 94.3 °F 39.4 °F 15% 29.82 in 12.0 mi South 8.1 mph 17.3 mph N/A   Clear
4:56 PM 94.5 °F 39.9 °F 15% 29.80 in 12.0 mi South 3.5 mph 16.1 mph N/A   Clear
4:58 PM 95.0 °F 41.0 °F 15% 29.81 in 10.0 mi South 11.5 mph 17.3 mph N/A   Mostly Cloudy
5:55 PM 95.0 °F 41.0 °F 15% 29.80 in 10.0 mi WSW 6.9 mph - N/A   Mostly Cloudy
6:55 PM 93.2 °F 41.0 °F 16% 29.80 in 10.0 mi SSW 8.1 mph - N/A   Mostly Cloudy
7:56 PM 91.4 °F 44.6 °F 20% 29.81 in 10.0 mi South 9.2 mph - N/A   Mostly Cloudy
8:56 PM 86.2 °F 43.2 °F 22% 29.84 in 11.0 mi SSE 15.0 mph 21.9 mph N/A   Scattered Clouds
8:58 PM 87.8 °F 46.4 °F 24% 29.81 in 10.0 mi SSE 10.4 mph - N/A   Scattered Clouds
9:55 PM 84.2 °F 42.8 °F 23% 29.84 in 10.0 mi SSE 11.5 mph 17.3 mph N/A   Partly Cloudy
9:56 PM 82.9 °F 38.7 °F 21% 29.86 in 11.0 mi SSE 12.7 mph - N/A   Clear
10:56 PM 81.9 °F 39.2 °F 22% 29.88 in 11.0 mi SSE 11.5 mph - N/A   Clear
10:58 PM 82.4 °F 39.2 °F 21% 29.85 in 10.0 mi SSE 12.7 mph - N/A   Partly Cloudy
11:56 PM 80.8 °F 37.4 °F 21% 29.89 in 12.0 mi South 10.4 mph 16.1 mph N/A   Clear
11:57 PM 82.4 °F 39.2 °F 21% 29.88 in 10.0 mi SSE 11.5 mph - N/A   Clear